Powrót do katalogu

STARLINK-4596

AktywnyŁącznośćVLEO
NORAD 53624·PAYLOAD·🇺🇸 United States

Wystrzelony Aug 28, 2022 z Cape Canaveral Space Force Station

Loading…

Następne Przeloty (najbliższe 24 godziny)

TLE

ŚwieżeSource: CelesTrak SupGP

Epoka: Sep 14, 2026, 21:44 UTC

1 53624C 22104AN  26257.90604167  .00021599  00000+0  69466-3 0  2570
2 53624  53.1578  89.8719 0001455  81.2050 247.5893 15.31686497    13

Śledź STARLINK-4596 w czasie rzeczywistym z AllMySat

Download on the App Store